Temperature
16 17 18 18 18 18 17 16 15 16 16 16 16 16 17 18 18 18 18 17 17 17 17 17 17 17 17 16 16 16 16 16 16 16 15 15 15 15 15 15 14 14 14 14
16 17 17 17 18 18 18 17 16 16 16 16 17 17 17 17 17 17 17 17 17 17 17 17 17 16 16 16 16 16 16 16 16 16 15 15 15 15 15 14 14 14 14 14
14 16 17 16 17 17 17 17 17 16 16 16 16 16 16 17 17 17 17 17 17 17 17 17 17 16 16 16 16 16 16 16 16 15 15 15 15 15 15 14 14 14 14 14
13 15 15 16 16 17 17 17 16 16 16 16 16 17 17 17 17 17 17 17 17 17 17 17 17 16 16 16 16 16 16 15 15 15 15 15 15 14 14 14 14 14 14 14
12 13 14 16 17 17 16 16 16 15 15 16 17 16 16 17 17 17 16 16 17 17 17 16 16 16 16 16 16 15 15 15 15 15 15 15 15 14 14 14 14 14 14 13
12 13 13 15 16 17 16 15 15 15 15 16 15 13 14 16 16 16 16 16 16 16 16 16 16 16 16 16 15 15 15 15 15 15 15 15 14 14 14 14 14 13 13 13
12 12 13 14 16 17 15 14 15 16 15 16 15 14 16 16 16 16 16 16 16 16 16 16 15 15 15 15 15 15 15 15 15 14 14 14 14 14 13 13 13 13 13 13
11 12 13 15 15 14 14 15 15 15 16 15 15 15 15 15 15 15 15 15 15 15 15 15 15 15 15 15 15 15 15 14 14 14 14 14 14 13 13 13 13 13 13 13
11 12 14 15 15 15 15 15 15 15 15 15 15 14 14 15 15 15 14 14 14 14 15 15 14 14 14 14 14 14 14 14 14 14 14 14 13 13 13 13 12 12 12 12
11 12 13 14 14 14 14 14 14 14 14 14 14 13 13 14 14 14 14 14 14 14 14 14 14 14 14 14 14 14 14 14 14 13 13 13 13 13 13 12 12 12 12 12
10 11 12 13 13 13 13 14 13 13 13 13 13 13 13 13 13 13 13 13 13 13 13 13 13 13 13 13 13 13 13 13 13 13 13 13 13 13 12 12 12 12 12 12
10 11 11 12 12 12 13 12 12 12 12 12 12 12 12 12 12 12 12 12 12 13 13 13 13 13 13 13 13 13 13 13 13 13 12 12 12 12 12 12 12 12 12 12
12 12 12 12 12 12 12 12 12 12 12 11 11 11 11 11 11 11 12 12 12 12 12 12 12 12 12 12 12 12 12 12 12 12 12 12 11 11 11 11 11 11 11 11
12 12 11 11 11 11 11 11 11 11 11 11 11 11 11 11 11 11 11 11 11 11 11 11 11 12 11 12 12 12 12 12 11 11 11 11 11 11 11 11 11 11 11 11
11 11 11 11 11 10 10 10 10 10 10 10 10 10 10 10 10 10 10 10 10 11 11 11 11 11 11 11 11 11 11 11 11 11 11 11 10 10 10 10 10 10 10 10
11 10 10 10 10 10 10 10 10 9 10 9 9 9 9 9 9 9 9 10 10 10 10 10 10 10 10 10 10 10 10 10 10 10 10 10 10 10 10 10 10 10 10 10
10 10 10 9 9 9 9 9 9 9 9 9 9 9 9 9 9 9 9 9 9 9 9 9 10 10 10 10 10 10 10 10 10 10 10 10 10 10 10 10 9 9 9 9
10 10 10 9 9 9 9 9 9 9 9 8 8 8 8 8 8 8 8 9 9 9 9 9 9 9 9 9 9 9 9 9 9 9 9 9 9 9 9 9 9 9 8 8
10 9 9 9 9 9 8 8 8 8 8 8 8 8 8 8 8 8 8 8 8 8 8 8 8 8 8 8 8 8 8 8 8 9 8 8 8 8 8 8 8 8 8 8
9 9 9 8 8 8 8 8 8 7 7 7 7 7 7 7 7 7 7 7 7 7 7 8 8 8 8 8 8 8 8 8 8 8 8 8 8 8 8 8 7 7 7 7
8 8 8 8 8 8 7 7 7 7 7 7 7 7 6 6 6 6 6 6 7 7 7 7 7 7 7 7 7 7 7 7 7 7 7 7 7 7 7 7 7 7 7 7
8 8 7 7 7 7 7 7 7 6 6 6 6 6 6 6 6 6 6 6 6 6 6 6 6 7 7 7 7 7 7 7 7 7 6 6 6 6 6 6 6 6 6 6
7 7 7 7 7 6 6 6 6 6 6 5 5 5 5 5 5 5 5 5 5 6 6 6 6 6 6 6 6 6 6 6 6 6 6 6 6 6 6 6 6 6 5 5
6 6 6 6 6 6 6 5 5 5 5 5 5 5 5 5 5 5 4 4 5 5 5 5 5 5 6 6 6 6 5 5 5 5 5 5 5 5 5 5 5 5 5 5
6 6 6 5 5 5 5 5 5 5 4 4 4 4 4 4 4 4 4 4 4 4 4 4 5 5 5 5 5 5 5 5 5 4 4 4 4 4 4 4 4 4 4 4
5 5 5 5 5 5 4 4 4 4 4 4 4 4 3 3 3 3 3 3 3 3 3 4 4 4 4 4 4 4 4 4 4 4 4 4 4 4 4 3 3 3 3 3
5 4 4 4 4 4 4 4 4 3 3 3 3 3 3 3 3 3 3 3 3 3 3 3 3 3 3 3 3 3 3 3 3 3 3 3 3 3 3 3 3 3 2 2
Wind_Speed
6 6 4 5 6 5 5 6 7 7 6 7 5 5 4 3 2 1 2 2 3 4 4 4 4 4 4 3 4 4 5 5 6 6 5 5 5 5 5 5 6 5 5 4
4 5 5 5 6 6 6 5 5 4 6 5 4 1 1 1 2 2 2 3 4 4 4 5 5 5 4 4 4 5 5 5 5 5 5 5 5 5 5 5 5 5 5 5
4 5 3 5 6 6 4 3 5 6 7 3 2 3 5 4 4 4 4 3 4 4 5 6 6 6 6 5 4 5 5 5 4 5 5 5 5 4 5 5 5 5 5 5
1 2 4 7 4 3 3 3 3 3 3 4 4 4 4 4 4 4 4 3 4 4 4 5 5 5 5 4 3 4 5 5 5 5 5 4 4 5 5 4 5 5 5 6
3 3 6 7 4 2 2 4 3 2 2 2 0 2 2 2 2 3 3 4 4 4 4 3 4 4 4 4 4 4 5 6 6 6 6 6 6 6 5 4 4 4 4 6
4 4 6 7 5 2 2 3 4 0 1 2 2 1 5 5 2 2 2 2 3 2 2 2 3 4 4 5 5 6 7 7 6 6 7 7 7 6 4 4 5 5 5 5
5 5 7 7 5 1 2 6 4 2 2 1 3 5 5 4 3 3 2 3 2 1 2 3 3 3 4 5 7 8 7 6 5 6 7 7 6 5 4 4 4 5 5 5
4 5 7 4 1 2 5 4 3 3 2 2 3 3 3 3 3 3 3 3 2 2 3 4 3 3 4 6 7 6 5 5 6 6 6 5 5 5 5 5 5 5 4 5
7 7 4 2 2 3 1 1 2 2 3 1 1 3 3 4 4 4 4 4 3 3 4 4 4 4 6 6 5 4 5 6 6 6 6 5 6 6 5 5 5 5 5 6
2 4 4 3 3 3 2 1 2 2 2 1 2 3 4 4 4 4 4 4 3 3 4 5 4 4 6 6 4 4 5 6 6 6 5 5 5 6 6 6 6 6 6 6
3 5 5 4 4 4 4 4 3 3 2 2 2 3 3 4 5 5 5 5 4 4 5 6 5 5 5 5 5 5 6 6 5 6 6 6 6 6 7 8 8 8 7 7
6 6 4 7 6 4 3 3 3 3 4 4 3 4 4 5 5 6 6 5 4 5 5 5 4 5 5 5 5 5 5 6 5 5 5 5 5 5 7 7 9 10 10 9
6 6 5 6 5 4 3 4 4 4 4 5 5 4 5 5 6 5 5 5 5 6 6 5 4 5 5 5 4 5 6 6 5 5 5 5 5 6 5 5 6 8 10 10
4 3 4 4 5 4 4 4 4 5 5 5 5 5 5 5 5 5 6 6 6 5 5 5 5 6 6 5 4 5 5 5 5 4 5 5 6 6 6 5 5 4 6 9
5 4 5 4 4 4 4 4 5 6 6 5 4 4 4 5 6 7 7 6 5 5 5 5 5 6 5 4 4 4 4 4 4 4 4 4 4 4 4 5 5 4 3 4
4 3 2 3 4 4 4 4 5 6 6 6 5 5 5 5 6 6 6 5 4 6 6 6 6 6 5 4 4 3 4 5 5 4 4 4 4 4 4 4 4 4 4 4
3 4 4 4 5 5 5 5 5 6 6 6 6 5 4 4 5 6 7 6 5 6 6 5 6 5 4 4 3 3 3 3 5 4 4 5 5 5 5 5 5 5 5 5
5 6 6 5 5 5 5 5 5 5 5 5 4 3 3 4 5 6 7 6 5 5 5 5 5 4 4 3 3 2 2 3 3 4 4 4 5 5 5 5 5 5 4 4
3 3 3 3 3 2 3 3 3 3 3 3 3 3 4 4 5 5 5 5 4 5 6 5 5 4 3 3 3 2 3 3 3 3 3 4 4 4 4 4 5 5 5 4
1 1 1 1 1 1 2 3 3 3 3 3 3 3 4 5 5 5 5 4 4 5 5 5 4 4 3 3 3 2 3 3 4 3 3 3 3 3 3 4 4 5 5 5
1 1 1 1 2 2 2 2 2 2 3 2 2 3 4 5 5 4 4 5 6 5 5 5 4 3 3 3 3 2 3 3 3 3 3 3 3 3 3 3 4 4 4 4
2 2 2 2 2 3 3 2 2 2 3 3 3 3 3 4 5 4 4 4 5 6 4 3 3 4 5 5 2 2 2 2 2 2 3 3 3 3 3 3 3 3 3 3
3 2 2 2 2 2 3 3 2 2 2 3 3 4 4 4 3 3 5 5 4 6 4 3 5 7 7 4 2 2 1 1 2 1 2 2 2 2 2 2 2 2 2 2
3 3 3 2 1 2 3 3 3 3 3 3 3 3 3 3 4 3 3 5 7 7 4 5 6 7 6 3 2 2 1 1 1 1 1 1 1 1 1 1 1 1 1 2
3 3 2 1 1 2 3 3 3 3 3 3 4 4 3 2 3 4 4 4 6 7 5 6 8 7 4 2 2 2 2 2 1 1 1 1 1 1 1 1 1 1 1 2
2 2 2 3 2 2 2 2 2 2 2 2 3 3 3 3 3 3 3 4 5 6 5 4 5 5 3 2 2 2 2 2 3 2 1 1 1 1 1 1 1 1 1 2
2 2 2 2 2 2 2 2 2 3 3 2 3 3 3 3 3 3 4 4 4 4 4 3 3 3 3 3 3 3 3 2 2 2 2 2 2 1 1 1 1 2 2 1
Wind_Direction
235 250 246 248 258 250 218 204 209 236 232 252 243 225 220 202 194 178 190 190 190 194 200 206 209 211 205 210 210 193 183 187 198 197 195 195 192 193 188 185 187 186 182 186
283 282 280 273 264 251 242 228 220 236 256 258 247 214 162 188 170 186 221 212 214 207 200 209 212 215 210 211 216 192 188 200 199 189 190 194 197 191 187 192 192 186 191 192
269 303 341 272 247 228 224 216 198 223 241 261 265 218 204 207 208 213 221 225 222 225 216 216 215 210 209 212 214 198 197 202 197 189 193 199 199 190 193 197 193 192 198 195
233 360 247 248 266 222 206 250 230 222 236 215 225 228 212 194 195 220 227 230 228 229 232 225 215 212 209 200 203 205 204 208 205 198 196 197 194 201 208 201 194 198 202 201
155 224 270 286 277 219 190 286 292 215 239 252 70 32 325 274 217 219 232 237 234 226 222 227 221 211 196 193 203 207 214 217 214 205 198 194 199 208 208 200 205 206 202 199
157 195 236 253 271 275 106 274 306 300 241 254 76 27 275 287 283 284 282 267 251 251 230 236 237 202 190 202 209 217 221 222 216 208 204 205 207 207 209 206 214 208 212 210
187 218 254 262 283 25 175 242 277 276 246 222 219 225 248 272 280 269 266 274 271 259 249 252 252 203 203 213 223 226 224 221 215 213 214 212 208 205 205 210 213 213 219 227
174 204 249 274 21 184 229 258 283 292 278 257 265 281 272 259 274 283 281 282 279 257 263 265 250 215 221 234 237 230 219 217 220 220 221 220 207 207 202 200 211 221 223 234
192 215 248 280 230 261 247 267 289 302 299 276 295 296 288 279 272 273 272 268 265 251 262 267 248 227 233 246 242 225 219 225 228 225 223 214 206 208 207 204 210 221 222 231
258 273 289 313 333 336 328 302 303 316 320 339 305 292 293 289 288 285 283 277 273 266 266 270 261 248 243 247 231 217 225 230 226 220 223 220 214 210 210 211 216 220 224 232
266 281 318 328 333 332 338 347 351 346 327 307 299 290 283 285 289 284 280 277 269 260 260 267 263 259 261 247 226 225 229 230 227 219 217 221 223 221 217 218 215 218 222 221
236 243 248 275 294 310 324 324 325 332 327 316 294 284 288 283 277 278 279 276 271 270 274 279 277 273 273 257 233 227 234 233 227 223 221 220 224 245 243 237 236 231 225 222
233 252 249 264 284 299 300 302 300 299 290 297 299 287 284 281 280 281 283 275 266 264 270 276 276 279 282 270 247 234 234 233 228 225 223 220 219 222 241 264 248 238 234 232
252 260 278 280 285 297 299 301 303 301 291 280 278 283 285 286 292 294 287 277 271 271 274 274 277 279 282 274 253 246 242 237 229 222 219 221 223 224 224 228 241 256 248 236
265 251 245 266 285 299 303 311 313 308 303 298 291 284 282 286 289 289 287 281 278 279 279 278 281 281 285 274 254 244 242 239 230 223 216 217 219 220 222 227 232 243 258 255
268 277 270 285 296 303 314 315 304 296 295 293 295 287 281 283 287 289 290 282 272 269 271 272 274 277 281 267 255 253 249 249 237 223 219 219 215 216 219 222 225 228 233 237
252 267 269 283 289 295 299 295 286 286 290 291 292 290 294 301 302 300 299 292 269 261 265 267 274 282 283 267 253 256 257 255 244 234 225 223 218 217 217 218 223 229 234 230
236 240 239 242 256 280 297 302 297 292 289 290 299 307 308 305 300 298 299 301 295 291 283 276 280 294 292 280 268 263 255 245 232 226 227 227 225 220 219 221 224 227 235 232
259 258 260 257 257 266 282 295 299 306 313 317 320 310 303 301 301 304 312 316 308 297 293 290 296 300 295 287 283 266 258 253 247 239 231 235 237 227 220 220 224 226 224 220
316 295 304 309 313 300 300 302 306 314 316 322 329 329 325 316 313 317 324 316 299 287 289 300 301 290 286 288 292 271 258 249 245 241 232 226 227 230 230 227 225 225 223 220
313 318 326 326 317 310 305 305 318 318 316 323 324 316 314 315 319 325 328 319 313 313 312 310 310 299 296 299 294 278 268 258 247 236 230 227 229 232 233 232 232 230 227 225
304 296 294 303 319 313 312 316 318 321 329 337 337 332 331 327 327 329 323 306 303 315 322 317 313 315 320 316 299 286 276 264 258 245 239 233 229 231 233 235 236 234 233 230
291 282 283 286 288 297 317 328 329 331 328 325 321 315 311 310 313 324 322 318 314 319 322 311 317 325 328 333 323 308 295 287 280 265 257 247 236 232 232 237 239 235 234 233
303 294 292 298 319 335 325 318 322 323 318 315 313 314 318 325 323 313 301 317 328 329 327 321 326 333 338 343 335 334 328 315 306 294 280 269 263 259 246 233 234 236 234 239
294 290 287 308 318 303 299 311 323 326 327 324 320 323 322 310 304 311 319 324 332 337 335 337 340 337 339 342 346 341 338 334 325 324 321 300 287 276 270 253 243 245 251 248
281 283 277 265 261 265 284 308 312 307 306 313 320 323 325 324 319 320 327 331 336 338 339 337 340 344 351 355 357 356 355 353 355 359 358 345 334 321 312 309 301 282 277 274
291 292 298 304 299 283 277 284 290 292 285 284 303 310 314 322 331 338 339 338 337 335 334 340 347 352 357 359 358 355 354 357 0 358 353 351 344 335 333 327 319 321 315 307
Height
1533 1529 1529 1528 1527 1526 1530 1533 1538 1533 1529 1523 1520 1519 1518 1518 1518 1519 1518 1518 1518 1519 1519 1520 1520 1521 1521 1522 1523 1524 1525 1526 1527 1528 1529 1530 1530 1531 1533 1533 1534 1535 1535 1535
1532 1526 1526 1526 1523 1523 1523 1523 1526 1525 1524 1517 1516 1516 1516 1517 1517 1517 1517 1517 1517 1517 1517 1517 1517 1518 1518 1519 1520 1521 1522 1523 1524 1525 1526 1526 1527 1528 1529 1530 1531 1531 1532 1532
1540 1531 1528 1532 1522 1520 1520 1518 1520 1523 1520 1515 1515 1515 1515 1515 1514 1514 1514 1514 1514 1515 1514 1514 1515 1515 1516 1516 1518 1518 1519 1520 1521 1521 1522 1523 1524 1525 1526 1526 1527 1528 1528 1529
1541 1537 1541 1528 1515 1514 1515 1515 1514 1513 1513 1513 1512 1512 1512 1512 1512 1512 1512 1512 1512 1512 1512 1512 1512 1512 1513 1514 1514 1515 1516 1516 1517 1518 1519 1519 1520 1521 1522 1523 1523 1524 1525 1525
1544 1543 1536 1522 1514 1513 1515 1516 1512 1512 1511 1511 1510 1510 1510 1510 1510 1510 1510 1510 1509 1509 1509 1509 1509 1509 1510 1510 1511 1512 1512 1512 1513 1514 1515 1515 1516 1517 1517 1518 1519 1520 1521 1521
1542 1542 1540 1523 1512 1509 1513 1519 1512 1510 1510 1509 1509 1514 1511 1508 1508 1508 1508 1508 1507 1507 1507 1507 1506 1506 1506 1506 1507 1507 1508 1508 1509 1510 1511 1511 1512 1512 1513 1514 1515 1515 1516 1517
1538 1539 1530 1515 1510 1510 1522 1520 1511 1509 1508 1508 1508 1508 1507 1506 1506 1506 1505 1505 1504 1504 1503 1503 1503 1503 1503 1503 1503 1503 1504 1504 1505 1506 1506 1507 1507 1508 1508 1509 1510 1510 1511 1512
1535 1538 1530 1511 1510 1514 1514 1509 1508 1507 1506 1505 1504 1504 1503 1503 1503 1502 1502 1501 1501 1500 1500 1500 1500 1500 1499 1498 1499 1499 1500 1500 1500 1501 1502 1502 1502 1503 1504 1504 1505 1505 1506 1506
1523 1522 1513 1510 1509 1509 1508 1507 1505 1505 1504 1503 1502 1501 1501 1500 1499 1499 1498 1498 1497 1497 1496 1496 1496 1495 1494 1494 1495 1495 1495 1495 1495 1496 1496 1497 1497 1498 1498 1499 1499 1500 1500 1501
1517 1513 1510 1509 1508 1507 1506 1505 1504 1503 1502 1501 1499 1498 1498 1497 1496 1495 1494 1494 1493 1492 1492 1491 1491 1490 1490 1490 1490 1490 1489 1490 1490 1490 1491 1491 1492 1493 1493 1493 1494 1494 1495 1495
1515 1511 1509 1507 1506 1505 1504 1503 1501 1500 1499 1498 1497 1496 1495 1494 1493 1491 1490 1489 1489 1488 1487 1486 1486 1485 1485 1485 1485 1484 1484 1484 1484 1484 1485 1485 1486 1487 1487 1488 1489 1489 1489 1489
1512 1509 1508 1506 1505 1504 1502 1500 1499 1497 1496 1495 1494 1492 1491 1490 1489 1487 1486 1485 1484 1483 1482 1481 1481 1480 1480 1480 1479 1479 1478 1478 1478 1478 1479 1479 1480 1480 1481 1482 1483 1483 1484 1484
1505 1505 1504 1503 1502 1500 1498 1497 1496 1494 1493 1491 1489 1488 1487 1485 1483 1482 1481 1480 1479 1478 1477 1476 1476 1475 1475 1474 1474 1473 1472 1472 1472 1472 1472 1473 1474 1474 1474 1475 1476 1477 1477 1478
1502 1501 1500 1499 1498 1496 1495 1493 1492 1490 1489 1487 1485 1483 1482 1480 1479 1478 1476 1475 1474 1473 1472 1471 1470 1469 1469 1468 1468 1467 1466 1466 1465 1465 1466 1467 1467 1468 1469 1469 1469 1469 1471 1471
1498 1497 1496 1495 1494 1492 1491 1489 1487 1485 1483 1481 1480 1478 1477 1475 1474 1473 1472 1471 1470 1468 1467 1466 1464 1463 1463 1462 1461 1460 1460 1459 1459 1459 1460 1460 1461 1462 1462 1463 1463 1463 1464 1465
1494 1493 1492 1491 1490 1488 1486 1485 1483 1480 1479 1476 1475 1473 1472 1470 1469 1468 1467 1466 1464 1462 1461 1460 1459 1458 1457 1456 1455 1454 1454 1454 1453 1453 1453 1454 1454 1455 1456 1456 1456 1457 1457 1457
1490 1489 1488 1487 1486 1484 1482 1480 1478 1476 1474 1472 1471 1469 1467 1466 1464 1463 1462 1460 1459 1457 1456 1454 1453 1452 1451 1450 1449 1448 1448 1448 1448 1447 1447 1447 1448 1449 1449 1450 1450 1450 1451 1451
1486 1485 1484 1483 1482 1480 1478 1476 1474 1472 1470 1468 1466 1465 1464 1462 1460 1458 1457 1455 1453 1451 1450 1449 1448 1447 1446 1445 1444 1443 1443 1442 1442 1441 1441 1442 1442 1443 1443 1443 1444 1444 1444 1445
1482 1481 1481 1480 1478 1477 1475 1473 1471 1469 1467 1465 1463 1462 1460 1458 1456 1454 1452 1450 1447 1445 1444 1444 1443 1442 1441 1440 1439 1438 1437 1437 1436 1436 1436 1436 1436 1437 1437 1437 1437 1438 1438 1438
1479 1478 1477 1476 1475 1474 1472 1470 1468 1466 1464 1462 1460 1458 1457 1455 1453 1450 1448 1446 1444 1442 1440 1439 1438 1437 1436 1435 1434 1433 1432 1432 1431 1430 1430 1430 1430 1430 1431 1431 1431 1432 1432 1432
1477 1476 1474 1473 1472 1471 1469 1467 1465 1463 1462 1460 1458 1456 1454 1452 1450 1447 1445 1442 1440 1439 1437 1435 1434 1433 1432 1431 1430 1429 1428 1427 1426 1426 1425 1425 1425 1425 1425 1425 1425 1425 1426 1426
1475 1474 1472 1471 1469 1468 1467 1465 1463 1461 1459 1457 1455 1453 1451 1449 1447 1444 1442 1440 1438 1436 1433 1431 1430 1429 1428 1427 1426 1424 1423 1422 1422 1421 1420 1420 1420 1420 1420 1420 1420 1420 1420 1420
1473 1472 1470 1469 1467 1466 1464 1463 1461 1459 1457 1455 1453 1451 1448 1446 1444 1441 1439 1437 1435 1433 1430 1428 1427 1426 1425 1423 1422 1421 1420 1419 1418 1417 1416 1415 1415 1415 1415 1415 1414 1414 1414 1414
1470 1469 1468 1466 1465 1463 1461 1459 1458 1456 1454 1452 1450 1448 1446 1443 1441 1439 1437 1434 1432 1429 1427 1425 1424 1422 1421 1420 1419 1418 1416 1415 1414 1413 1412 1411 1411 1410 1410 1410 1410 1409 1409 1409
1468 1466 1465 1464 1462 1460 1459 1457 1455 1453 1451 1449 1448 1446 1443 1441 1439 1436 1433 1431 1429 1426 1424 1422 1421 1419 1418 1416 1416 1414 1413 1412 1411 1410 1409 1408 1407 1407 1406 1406 1405 1405 1405 1404
1465 1464 1462 1461 1459 1458 1456 1454 1452 1450 1448 1446 1444 1442 1440 1438 1436 1433 1431 1428 1426 1424 1422 1420 1418 1416 1414 1414 1412 1411 1410 1409 1408 1407 1406 1405 1404 1403 1403 1402 1402 1401 1401 1400
1462 1460 1459 1458 1456 1455 1453 1451 1449 1448 1446 1444 1441 1439 1437 1435 1433 1431 1428 1426 1424 1422 1420 1418 1416 1414 1412 1411 1410 1409 1407 1406 1405 1404 1403 1402 1402 1401 1400 1399 1399 1398 1397 1397